Theta_e
294 294 293 293 293 293 293 291 291 290 288 287 286 286 286 285 285 285 285 285 285 285 285 286 286 285 285 285 285 284 284 284
293 293 292 291 290 290 289 288 287 286 286 285 284 284 284 284 284 284 284 284 284 284 284 284 284 284 283 283 283 282 282 282
292 290 290 289 288 287 286 286 285 285 284 283 283 283 282 282 283 283 282 283 282 283 283 283 282 282 281 280 281 280 279 280
290 289 289 288 286 285 284 284 284 283 282 282 282 281 281 281 281 282 281 281 281 282 281 281 281 281 281 280 279 280 279 279
289 288 287 285 283 282 282 282 282 282 281 280 280 280 280 280 280 280 280 280 280 280 280 280 280 280 280 279 278 278 278 279
289 286 284 282 281 281 281 281 281 280 279 279 280 280 279 279 279 279 279 279 279 278 278 279 279 280 279 278 277 277 277 277
287 284 282 282 281 281 279 280 280 278 278 279 278 278 278 278 277 277 277 277 278 277 277 277 279 281 281 279 276 277 276 276
285 284 283 282 281 280 279 279 278 278 278 278 278 277 277 277 277 276 276 276 276 275 276 276 276 280 280 279 276 276 276 275
285 284 282 281 280 280 279 278 278 277 277 277 277 276 276 275 275 275 275 275 275 274 275 275 276 279 279 279 276 275 275 275
285 284 282 280 280 279 278 278 277 276 276 276 276 276 275 275 274 274 274 274 274 275 274 274 275 278 278 278 275 275 275 275
283 283 281 278 279 278 277 277 276 276 276 276 275 275 274 274 274 274 274 275 275 275 275 275 274 276 277 277 276 274 274 274
282 282 281 278 278 277 276 276 276 276 275 274 274 274 273 273 273 273 273 273 273 274 274 274 274 274 277 277 275 274 274 272
279 280 279 278 278 277 276 275 274 273 273 272 271 273 273 271 272 272 272 271 271 272 272 273 273 274 275 276 276 276 273 272
278 277 277 277 277 276 275 273 272 270 268 268 270 272 273 270 271 269 270 269 270 270 269 269 272 271 273 274 275 275 273 273
275 274 274 273 275 275 272 271 268 266 267 268 268 268 269 271 271 269 267 267 269 268 267 266 268 269 270 271 271 273 272 273
275 274 272 271 270 269 269 268 267 267 268 269 268 267 267 269 268 269 269 269 264 263 265 262 264 267 273 273 271 271 273 269
271 271 270 268 267 264 265 266 266 267 267 267 266 265 266 265 265 271 273 274 275 275 272 269 273 275 274 275 274 275 273 262
272 269 267 266 265 261 261 263 263 263 264 264 265 264 263 264 263 262 265 270 271 272 273 273 273 273 273 273 274 270 266 252
267 266 266 264 264 262 259 259 258 259 264 264 264 263 262 263 263 263 261 261 262 266 268 270 271 271 271 272 266 258 255 250
264 261 262 262 263 259 259 260 260 261 262 260 261 264 264 262 262 261 260 259 259 259 263 263 267 268 269 268 254 254 253 252
Wind_Speed
9 8 5 5 6 6 6 8 8 8 7 7 7 7 7 7 7 7 6 7 7 7 7 8 8 8 8 6 7 7 6 6
10 8 7 6 6 6 6 6 8 8 8 7 6 6 7 7 6 6 6 6 7 6 6 7 7 7 7 6 7 6 6 5
8 8 7 7 6 6 7 7 7 7 6 6 6 6 7 7 7 6 7 6 5 5 5 8 8 7 8 7 7 6 8 7
9 8 7 7 7 7 6 6 6 6 6 6 6 6 7 6 5 5 5 5 5 5 6 7 7 7 7 7 7 7 6 6
8 8 7 7 7 7 6 6 6 6 6 6 5 6 5 5 5 5 5 5 5 5 5 5 5 6 7 7 6 5 5 5
10 9 9 8 7 6 6 6 6 6 5 6 5 5 4 5 5 5 5 5 5 5 5 4 5 5 6 5 5 5 5 5
10 11 11 10 9 8 7 7 7 6 6 6 5 5 5 5 5 5 5 4 4 5 5 5 2 8 10 8 6 7 6 5
13 13 10 11 10 9 8 6 7 6 5 5 5 4 4 4 4 4 3 3 4 5 4 4 3 7 8 10 5 5 5 4
12 11 10 9 9 9 7 7 6 6 5 5 5 4 4 4 4 3 2 2 2 3 4 3 3 6 7 8 3 3 4 5
13 12 8 10 10 10 8 7 6 6 6 5 5 5 4 4 3 2 2 2 1 1 2 2 1 5 7 6 4 6 6 6
14 12 12 8 9 10 8 7 7 6 6 5 4 4 4 3 2 1 0 1 1 2 2 2 0 4 7 7 4 6 6 6
14 13 12 10 9 9 8 7 6 6 6 5 4 4 4 3 2 2 1 1 1 2 2 3 1 4 8 9 5 6 6 6
12 11 11 10 9 8 8 7 6 6 6 5 3 2 3 4 1 1 1 1 2 2 3 2 3 7 8 10 11 12 7 8
11 11 7 7 7 9 7 7 6 5 5 5 4 3 3 2 1 1 1 0 2 1 1 2 2 2 9 12 13 13 9 7
10 10 8 4 4 5 8 7 6 6 5 4 4 3 2 1 1 1 0 1 1 2 2 3 3 3 4 6 6 9 9 12
10 8 6 5 5 5 7 7 6 4 4 3 3 3 2 2 2 2 2 3 3 4 3 3 4 3 10 11 6 7 11 7
5 7 7 6 5 4 5 6 6 5 4 3 3 2 2 2 2 4 6 8 10 10 7 3 10 14 16 16 18 20 19 6
9 6 7 7 6 3 4 6 6 5 4 3 3 2 2 1 2 2 4 7 7 8 10 11 12 14 14 16 17 15 15 2
7 7 8 7 7 6 5 4 4 3 3 3 3 3 2 2 2 2 1 2 3 5 9 11 11 13 15 16 11 7 5 2
5 4 6 6 7 5 6 6 6 4 3 3 2 2 3 2 1 1 2 3 4 3 5 6 13 15 13 13 1 4 5 3
Wind_Direction
119 116 112 101 96 92 98 110 110 109 104 86 88 88 90 90 83 74 67 66 63 57 53 54 45 35 42 45 27 35 25 31
139 139 128 112 103 105 107 98 80 79 84 93 90 84 81 80 78 79 72 64 65 62 65 63 53 44 49 43 27 37 34 21
138 145 146 138 125 107 99 103 99 96 94 90 86 83 84 77 67 66 72 65 71 69 66 64 48 38 38 34 20 20 25 19
153 163 153 147 131 116 110 108 104 107 103 95 88 84 78 76 71 71 79 71 68 66 68 75 59 44 31 30 19 9 14 21
166 164 155 136 129 124 121 119 114 104 103 98 89 86 87 90 84 81 74 75 68 64 71 89 67 56 40 27 14 4 22 16
176 163 142 138 137 136 131 124 121 113 113 102 93 90 94 84 83 80 72 75 79 73 61 86 63 44 44 19 4 12 14 2
171 156 155 156 154 153 144 138 124 127 118 108 110 107 89 77 74 77 81 85 87 74 70 58 66 48 32 29 14 5 354 5
171 166 164 166 162 158 148 132 131 130 124 122 113 97 97 98 93 89 86 88 83 72 71 59 4 38 28 32 8 1 334 354
165 162 161 154 148 137 143 141 140 126 125 117 127 132 116 107 100 92 81 80 90 81 69 61 18 14 5 19 17 324 314 322
160 153 148 155 150 149 144 140 136 146 142 143 152 141 129 125 114 96 76 75 61 88 74 83 40 350 348 11 355 345 324 311
145 143 146 152 151 142 145 150 160 158 151 146 136 141 136 128 125 128 307 66 35 353 66 329 349 333 341 355 352 315 310 319
148 158 155 145 152 151 150 169 151 144 136 131 146 150 144 132 171 152 139 28 341 310 322 337 24 339 334 333 340 312 321 316
136 145 149 147 156 154 166 143 144 140 136 141 143 155 132 140 158 128 205 240 313 337 342 334 0 340 327 331 326 324 328 309
136 130 135 151 165 163 153 141 137 133 148 166 152 141 147 141 152 120 4 337 318 315 293 289 309 298 324 322 316 326 317 301
124 138 161 157 137 135 142 139 141 152 167 163 163 168 174 166 166 169 230 291 267 273 269 266 253 260 292 272 268 291 305 298
158 161 151 134 136 139 144 141 153 163 173 175 171 179 182 189 197 198 216 199 205 226 221 247 283 264 294 312 312 309 306 1
119 139 161 149 151 157 148 153 154 168 176 177 166 178 182 185 298 293 281 283 271 278 268 227 261 293 305 315 318 320 344 3
174 150 152 163 174 173 156 157 171 169 168 167 163 164 166 183 179 271 319 317 304 310 304 302 302 302 310 314 315 356 351 344
146 162 170 169 190 181 160 135 145 163 162 169 174 167 167 175 202 202 228 280 298 322 317 307 309 312 312 311 6 337 336 258
147 157 158 172 209 168 157 169 178 181 193 174 164 168 169 155 186 224 247 258 272 309 308 308 308 309 312 333 157 284 295 281